San Angelo, TX

9:02 AM CDT on August 17, 2017 (GMT -0500)
San Angelo Regional-Mathis

Weather History for KSJT - July, 2014

Change the Weather History Date:

Sunday, July 6, 2014

  Actual Average Record
Temperature  
Mean Temperature 83 °F 83 °F  
Max Temperature 95 °F 94 °F 104 °F (1939)
Min Temperature 70 °F 71 °F 58 °F (1968)
Degree Days  
Heating Degree Days 0 0  
Month to date heating degree days 0 0  
Since 1 June heating degree days 0 0  
Since 1 July heating degree days 0 0  
Cooling Degree Days 18 18  
Month to date cooling degree days 112 104  
Year to date cooling degree days 1198 1028  
Since 1 June cooling degree days 596 568  
Growing Degree Days 32 (Base 50)    
Moisture  
Dew Point 61 °F    
Average Humidity 54    
Maximum Humidity 79    
Minimum Humidity 28    
Precipitation  
Precipitation 0.00 in 0.04 in 2.14 in (1936)
Month to date precipitation 0.00 0.28  
Year to date precipitation 10.56 10.89  
Sea Level Pressure  
Sea Level Pressure 29.97 in    
Wind  
Wind Speed 6 mph (South)    
Max Wind Speed 14 mph    
Max Gust Speed 19 mph    
Visibility 10 miles    
Events      
T = Trace of Precipitation, MM = Missing Value Source: NWS Daily Summary

Daily Weather History Graph

Daily Weather History Graph

Search for Another Location

Airport or City:

Trip Planner

Search our weather history database for the weather conditions in past years. The results will help you decide how hot, cold, wet, or windy it might be!

Date:

Astronomy

Jul. 06, 2014 Rise Set
Actual Time 6:43 AM CDT 8:50 PM CDT
Civil Twilight 6:15 AM CDT 9:17 PM CDT
Nautical Twilight 5:41 AM CDT 9:51 PM CDT
Astronomical Twilight 5:05 AM CDT 10:27 PM CDT
Moon 3:04 PM CDT (7/6) 1:48 AM CDT (7/6)
Length of Visible Light 15h 02m
Length of Day
14h 06m
Waxing Gibbous, 62% of the Moon is Illuminated
Jul 6
Waxing Gibbous
Jul 12
Full
Jul 18
Last Quarter
Jul 26
New
Aug 3
First Quarter

Hourly Weather History & Observations

Time (CDT) Temp. Heat Index Dew Point Humidity Pressure Visibility Wind Dir Wind Speed Gust Speed Precip Events Conditions
12:51 AM 75.9 °F - 57.9 °F 54% 30.00 in 10.0 mi South 6.9 mph - N/A   Clear
1:51 AM 75.0 °F - 59.0 °F 57% 29.99 in 10.0 mi South 9.2 mph - N/A   Clear
2:51 AM 75.0 °F - 61.0 °F 62% 29.99 in 10.0 mi South 5.8 mph - N/A   Clear
3:51 AM 73.0 °F - 62.1 °F 68% 29.99 in 10.0 mi South 6.9 mph - N/A   Clear
4:51 AM 73.0 °F - 63.0 °F 71% 30.00 in 10.0 mi South 8.1 mph - N/A   Clear
5:51 AM 71.1 °F - 64.0 °F 78% 30.00 in 10.0 mi Calm Calm - N/A   Clear
6:51 AM 71.1 °F - 64.0 °F 78% 30.01 in 10.0 mi Calm Calm - N/A   Clear
7:51 AM 72.0 °F - 64.9 °F 78% 30.03 in 10.0 mi South 5.8 mph - N/A   Clear
8:51 AM 75.9 °F - 66.0 °F 71% 30.03 in 10.0 mi South 10.4 mph - N/A   Clear
9:51 AM 80.1 °F 82.3 °F 66.9 °F 64% 30.02 in 10.0 mi South 5.8 mph - N/A   Clear
10:51 AM 84.0 °F 86.3 °F 66.0 °F 55% 30.01 in 10.0 mi SSE 10.4 mph 19.6 mph N/A   Clear
11:51 AM 87.1 °F 88.3 °F 64.0 °F 46% 30.01 in 10.0 mi South 6.9 mph - N/A   Clear
1:51 PM 93.0 °F 92.7 °F 60.1 °F 33% 29.97 in 10.0 mi Variable 4.6 mph - N/A   Clear
2:51 PM 93.9 °F 92.9 °F 57.9 °F 30% 29.95 in 10.0 mi South 5.8 mph - N/A   Clear
3:51 PM 95.0 °F 93.7 °F 57.0 °F 28% 29.93 in 10.0 mi South 9.2 mph - N/A   Clear
5:51 PM 93.0 °F 91.4 °F 55.9 °F 29% 29.89 in 10.0 mi ESE 3.5 mph - N/A   Partly Cloudy
6:51 PM 91.9 °F 90.8 °F 57.9 °F 32% 29.88 in 10.0 mi South 4.6 mph - N/A   Partly Cloudy
7:51 PM 90.0 °F 89.7 °F 60.1 °F 37% 29.88 in 10.0 mi SSE 3.5 mph - N/A   Mostly Cloudy
8:51 PM 88.0 °F 87.1 °F 59.0 °F 37% 29.89 in 10.0 mi SSE 5.8 mph - N/A   Mostly Cloudy
10:51 PM 84.0 °F 84.4 °F 61.0 °F 46% 29.92 in 10.0 mi South 5.8 mph - N/A   Scattered Clouds